,,,PA_Meas_PMT16A,,PR_Meas_QMR101_102,,RH_Meas_QMH101,,SR_Meas_QMS101,,TA_Meas_QMH101,,GenWind,,GenWind,
date,time,status,PA,status,PR,status,RH,status,SR,status,TA,status,DirAvg,status,SpdAvg,
2010-03-09, 00:00:05,VALID,1006.68,VALID,0,VALID,95.2466,VALID,0,VALID,23.5673,VALID,73,VALID,0,
2010-03-09, 00:01:05,VALID,1006.68,VALID,0,VALID,95.2542,VALID,0,VALID,23.5266,VALID,73,VALID,0,
2010-03-09, 00:02:05,VALID,1006.64,VALID,0,VALID,95.2695,VALID,0,VALID,23.5089,VALID,73,VALID,0,
2010-03-09, 00:03:05,VALID,1006.65,VALID,0,VALID,95.2847,VALID,0,VALID,23.4116,VALID,73,VALID,0.0164062,
2010-03-09, 00:04:05,VALID,1006.63,VALID,0,VALID,95.2618,VALID,0,VALID,23.3727,VALID,35,VALID,0.46875,
2010-03-09, 00:05:05,VALID,1006.63,VALID,0,VALID,95.2618,VALID,0,VALID,23.2948,VALID,33,VALID,0.394922,
2010-03-09, 00:06:05,VALID,1006.6,VALID,0,VALID,95.2313,VALID,0,VALID,23.2559,VALID,33,VALID,0.286328,
2010-03-09, 00:07:05,VALID,1006.6,VALID,0,VALID,95.2008,VALID,0,VALID,23.2364,VALID,33,VALID,0.327344,
2010-03-09, 00:08:05,VALID,1006.62,VALID,0,VALID,95.1703,VALID,0,VALID,23.2152,VALID,33,VALID,0.223047,
2010-03-09, 00:09:05,VALID,1006.62,VALID,0,VALID,95.1779,VALID,0,VALID,23.2152,VALID,33,VALID,0.244922,
2010-03-09, 00:10:05,VALID,1006.62,VALID,0,VALID,95.1855,VALID,0,VALID,23.2364,VALID,33,VALID,0.223047,
2010-03-09, 00:11:05,VALID,1006.64,VALID,0,VALID,95.1703,VALID,0,VALID,23.217,VALID,33,VALID,0,
2010-03-09, 00:12:05,VALID,1006.65,VALID,0,VALID,95.1855,VALID,0,VALID,23.217,VALID,33,VALID,0,
2010-03-09, 00:13:05,VALID,1006.62,VALID,0,VALID,95.1779,VALID,0,VALID,23.178,VALID,33,VALID,0.00429688,
2010-03-09, 00:14:05,VALID,1006.59,VALID,0,VALID,95.1855,VALID,0,VALID,23.1975,VALID,33,VALID,0,
2010-03-09, 00:15:05,VALID,1006.58,VALID,0,VALID,95.1703,VALID,0,VALID,23.1975,VALID,33,VALID,0.286719,
2010-03-09, 00:16:05,VALID,1006.56,VALID,0,VALID,95.1703,VALID,0,VALID,23.2382,VALID,33,VALID,0.290234,
2010-03-09, 00:17:05,VALID,1006.55,VALID,0,VALID,95.1932,VALID,0,VALID,23.1975,VALID,33,VALID,0.421094,
2010-03-09, 00:18:05,VALID,1006.51,VALID,0,VALID,95.2008,VALID,0,VALID,23.1975,VALID,33,VALID,0.426562,
2010-03-09, 00:19:05,VALID,1006.5,VALID,0,VALID,95.2008,VALID,0,VALID,23.2187,VALID,33,VALID,0.459375,
2010-03-09, 00:20:05,VALID,1006.48,VALID,0,VALID,95.2084,VALID,0,VALID,23.1975,VALID,33,VALID,0.349609,
2010-03-09, 00:21:05,VALID,1006.48,VALID,0,VALID,95.2313,VALID,0,VALID,23.1391,VALID,33,VALID,0.319922,
2010-03-09, 00:22:05,VALID,1006.45,VALID,0,VALID,95.2313,VALID,0,VALID,23.1179,VALID,33,VALID,0.279687,
2010-03-09, 00:23:05,VALID,1006.45,VALID,0,VALID,95.2084,VALID,0,VALID,23.1603,VALID,33,VALID,0.201562,
2010-03-09, 00:24:05,VALID,1006.47,VALID,0,VALID,95.2237,VALID,0,VALID,23.1586,VALID,33,VALID,0.192188,
2010-03-09, 00:25:05,VALID,1006.46,VALID,0,VALID,95.2161,VALID,0,VALID,23.178,VALID,33,VALID,0,
2010-03-09, 00:26:05,VALID,1006.42,VALID,0,VALID,95.2466,VALID,0,VALID,23.1975,VALID,33,VALID,0,
2010-03-09, 00:27:05,VALID,1006.44,VALID,0,VALID,95.2389,VALID,0,VALID,23.1975,VALID,33,VALID,0,
2010-03-09, 00:28:05,VALID,1006.42,VALID,0,VALID,95.2466,VALID,0,VALID,23.1586,VALID,33,VALID,0,
2010-03-09, 00:29:05,VALID,1006.41,VALID,0,VALID,95.2466,VALID,0,VALID,23.1374,VALID,33,VALID,0,
2010-03-09, 00:30:05,VALID,1006.42,VALID,0,VALID,95.2618,VALID,0,VALID,23.1391,VALID,33,VALID,0,
2010-03-09, 00:31:05,VALID,1006.41,VALID,0,VALID,95.2618,VALID,0,VALID,23.1586,VALID,33,VALID,0,
2010-03-09, 00:32:05,VALID,1006.37,VALID,0,VALID,95.2771,VALID,0,VALID,23.1586,VALID,33,VALID,0.0210938,
2010-03-09, 00:33:05,VALID,1006.35,VALID,0,VALID,95.2771,VALID,0,VALID,23.1586,VALID,33,VALID,0.258594,
2010-03-09, 00:34:05,VALID,1006.3,VALID,0,VALID,95.2847,VALID,0,VALID,23.1586,VALID,33,VALID,0.303125,
2010-03-09, 00:35:05,VALID,1006.29,VALID,0,VALID,95.2695,VALID,0,VALID,23.1586,VALID,33,VALID,0.14375,
2010-03-09, 00:36:05,VALID,1006.24,VALID,0,VALID,95.2771,VALID,0,VALID,23.1975,VALID,33,VALID,0.185156,
2010-03-09, 00:37:05,VALID,1006.21,VALID,0,VALID,95.2847,VALID,0,VALID,23.1975,VALID,33,VALID,0.0277344,
2010-03-09, 00:38:05,VALID,1006.16,VALID,0,VALID,95.3076,VALID,0,VALID,23.1975,VALID,33,VALID,0,
2010-03-09, 00:39:05,VALID,1006.15,VALID,0,VALID,95.3,VALID,0,VALID,23.1586,VALID,33,VALID,0,
2010-03-09, 00:40:05,VALID,1006.15,VALID,0,VALID,95.3381,VALID,0,VALID,23.1409,VALID,33,VALID,0,
2010-03-09, 00:41:05,VALID,1006.13,VALID,0,VALID,95.3229,VALID,0,VALID,23.1002,VALID,33,VALID,0,
2010-03-09, 00:42:05,VALID,1006.14,VALID,0,VALID,95.3152,VALID,0,VALID,23.0613,VALID,33,VALID,0,
2010-03-09, 00:43:05,VALID,1006.13,VALID,0,VALID,95.3305,VALID,0,VALID,23.0418,VALID,33,VALID,0,
2010-03-09, 00:44:05,VALID,1006.14,VALID,0,VALID,95.3152,VALID,0,VALID,23.0224,VALID,33,VALID,0,
2010-03-09, 00:45:05,VALID,1006.11,VALID,0,VALID,95.3076,VALID,0,VALID,23.0224,VALID,33,VALID,0,
2010-03-09, 00:46:05,VALID,1006.14,VALID,0,VALID,95.3,VALID,0,VALID,23.0224,VALID,33,VALID,0,
2010-03-09, 00:47:05,VALID,1006.12,VALID,0,VALID,95.3076,VALID,0,VALID,23.0418,VALID,33,VALID,0,
2010-03-09, 00:48:05,VALID,1006.1,VALID,0,VALID,95.2847,VALID,0,VALID,23.0613,VALID,33,VALID,0,
2010-03-09, 00:49:04,VALID,1006.12,VALID,0,VALID,95.2923,VALID,0,VALID,23.0807,VALID,33,VALID,0,
2010-03-09, 00:50:04,VALID,1006.14,VALID,0,VALID,95.3076,VALID,0,VALID,23.0613,VALID,33,VALID,0,
2010-03-09, 00:51:04,VALID,1006.14,VALID,0,VALID,95.3152,VALID,0,VALID,23.0613,VALID,33,VALID,0,
2010-03-09, 00:52:04,VALID,1006.14,VALID,0,VALID,95.3076,VALID,0,VALID,23.0613,VALID,33,VALID,0,
2010-03-09, 00:53:04,VALID,1006.11,VALID,0,VALID,95.3076,VALID,0,VALID,23.0613,VALID,33,VALID,0,
2010-03-09, 00:54:04,VALID,1006.11,VALID,0,VALID,95.3229,VALID,0,VALID,23.0613,VALID,33,VALID,0,
2010-03-09, 00:55:04,VALID,1006.12,VALID,0,VALID,95.3305,VALID,0,VALID,23.063,VALID,33,VALID,0,
2010-03-09, 00:56:04,VALID,1006.1,VALID,0,VALID,95.3229,VALID,0,VALID,23.0224,VALID,33,VALID,0,
2010-03-09, 00:57:04,VALID,1006.1,VALID,0,VALID,95.3229,VALID,0,VALID,23.0029,VALID,33,VALID,0,
2010-03-09, 00:58:04,VALID,1006.09,VALID,0,VALID,95.3076,VALID,0,VALID,23.0029,VALID,33,VALID,0,
2010-03-09, 00:59:04,VALID,1006.08,VALID,0,VALID,95.3229,VALID,0,VALID,22.964,VALID,33,VALID,0,
2010-03-09, 01:00:04,VALID,1006.05,VALID,0,VALID,95.3229,VALID,0,VALID,22.964,VALID,33,VALID,0,
2010-03-09, 01:01:04,VALID,1006.06,VALID,0,VALID,95.3152,VALID,0,VALID,22.964,VALID,33,VALID,0,
2010-03-09, 01:02:04,VALID,1006.04,VALID,0,VALID,95.3229,VALID,0,VALID,22.9834,VALID,33,VALID,0,
2010-03-09, 01:03:04,VALID,1006.03,VALID,0,VALID,95.3,VALID,0,VALID,22.964,VALID,33,VALID,0,
2010-03-09, 01:04:04,VALID,1005.98,VALID,0,VALID,95.3305,VALID,0,VALID,22.9834,VALID,33,VALID,0,
2010-03-09, 01:05:04,VALID,1005.98,VALID,0,VALID,95.3305,VALID,0,VALID,22.9817,VALID,33,VALID,0,
2010-03-09, 01:06:04,VALID,1005.97,VALID,0,VALID,95.3381,VALID,0,VALID,23.0029,VALID,33,VALID,0,
2010-03-09, 01:07:04,VALID,1005.94,VALID,0,VALID,95.3457,VALID,0,VALID,22.9852,VALID,33,VALID,0,
2010-03-09, 01:08:04,VALID,1005.92,VALID,0,VALID,95.3534,VALID,0,VALID,22.9251,VALID,33,VALID,0,
2010-03-09, 01:09:04,VALID,1005.89,VALID,0,VALID,95.3534,VALID,0,VALID,22.9056,VALID,33,VALID,0,
2010-03-09, 01:10:04,VALID,1005.88,VALID,0,VALID,95.3457,VALID,0,VALID,22.9056,VALID,33,VALID,0,
2010-03-09, 01:11:04,VALID,1005.9,VALID,0,VALID,95.3305,VALID,0,VALID,22.9251,VALID,33,VALID,0,
2010-03-09, 01:12:04,VALID,1005.88,VALID,0,VALID,95.3381,VALID,0,VALID,22.9445,VALID,33,VALID,0,
2010-03-09, 01:13:04,VALID,1005.88,VALID,0,VALID,95.3305,VALID,0,VALID,22.9657,VALID,33,VALID,0,
2010-03-09, 01:14:04,VALID,1005.88,VALID,0,VALID,95.3534,VALID,0,VALID,22.9834,VALID,33,VALID,0,
2010-03-09, 01:15:04,VALID,1005.88,VALID,0,VALID,95.3534,VALID,0,VALID,23.0029,VALID,33,VALID,0,
2010-03-09, 01:16:04,VALID,1005.88,VALID,0,VALID,95.3534,VALID,0,VALID,23.0029,VALID,33,VALID,0,
2010-03-09, 01:17:04,VALID,1005.89,VALID,0,VALID,95.3457,VALID,0,VALID,22.9834,VALID,33,VALID,0,
2010-03-09, 01:18:04,VALID,1005.89,VALID,0,VALID,95.3915,VALID,0,VALID,22.964,VALID,33,VALID,0,
2010-03-09, 01:19:04,VALID,1005.9,VALID,0,VALID,95.3915,VALID,0,VALID,23.0029,VALID,33,VALID,0,
2010-03-09, 01:20:04,VALID,1005.93,VALID,0,VALID,95.3763,VALID,0,VALID,23.0418,VALID,33,VALID,0,
2010-03-09, 01:21:04,VALID,1005.93,VALID,0,VALID,95.3763,VALID,0,VALID,23.0224,VALID,33,VALID,0,
2010-03-09, 01:22:04,VALID,1005.89,VALID,0,VALID,95.3991,VALID,0,VALID,22.9834,VALID,33,VALID,0,
2010-03-09, 01:23:04,VALID,1005.9,VALID,0,VALID,95.3991,VALID,0,VALID,22.9445,VALID,33,VALID,0.473047,
2010-03-09, 01:24:04,VALID,1005.91,VALID,0,VALID,95.4144,VALID,0,VALID,22.9428,VALID,33,VALID,0.422656,
2010-03-09, 01:25:04,VALID,1005.89,VALID,0,VALID,95.3991,VALID,0,VALID,23.0436,VALID,33,VALID,0.226953,
2010-03-09, 01:26:04,VALID,1005.88,VALID,0,VALID,95.3991,VALID,0,VALID,23.0418,VALID,33,VALID,0,
2010-03-09, 01:27:04,VALID,1005.88,VALID,0,VALID,95.4144,VALID,0,VALID,23.0613,VALID,33,VALID,0,
2010-03-09, 01:28:04,VALID,1005.88,VALID,0,VALID,95.4297,VALID,0,VALID,23.0224,VALID,33,VALID,0.00273437,
2010-03-09, 01:29:04,VALID,1005.87,VALID,0,VALID,95.4373,VALID,0,VALID,23.0224,VALID,33,VALID,0.416406,
2010-03-09, 01:30:04,VALID,1005.85,VALID,0,VALID,95.4297,VALID,0,VALID,23.0206,VALID,33,VALID,0.327344,
2010-03-09, 01:31:04,VALID,1005.87,VALID,0,VALID,95.422,VALID,0.100563,VALID,23.0189,VALID,33,VALID,0.202344,
2010-03-09, 01:32:04,VALID,1005.88,VALID,0,VALID,95.4144,VALID,0,VALID,23.0772,VALID,33,VALID,0.128906,
2010-03-09, 01:33:04,VALID,1005.86,VALID,0,VALID,95.422,VALID,0,VALID,23.1374,VALID,33,VALID,0,
2010-03-09, 01:34:04,VALID,1005.86,VALID,0,VALID,95.422,VALID,0.100563,VALID,23.1162,VALID,33,VALID,0,
2010-03-09, 01:35:04,VALID,1005.86,VALID,0,VALID,95.4297,VALID,0.100563,VALID,23.1957,VALID,33,VALID,0,
2010-03-09, 01:36:04,VALID,1005.86,VALID,0,VALID,95.4449,VALID,0,VALID,23.2364,VALID,33,VALID,0,
2010-03-09, 01:37:04,VALID,1005.85,VALID,0,VALID,95.4526,VALID,0.100563,VALID,23.2152,VALID,33,VALID,0,
2010-03-09, 01:38:04,VALID,1005.82,VALID,0,VALID,95.4602,VALID,0,VALID,23.1551,VALID,33,VALID,0,
2010-03-09, 01:39:04,VALID,1005.81,VALID,0,VALID,95.4678,VALID,0.100563,VALID,23.1356,VALID,33,VALID,0,
2010-03-09, 01:40:04,VALID,1005.79,VALID,0,VALID,95.4831,VALID,0,VALID,23.1763,VALID,33,VALID,0,
2010-03-09, 01:41:04,VALID,1005.79,VALID,0,VALID,95.4678,VALID,0.100563,VALID,23.1763,VALID,33,VALID,0,
2010-03-09, 01:42:04,VALID,1005.79,VALID,0,VALID,95.4907,VALID,0.100563,VALID,23.1957,VALID,33,VALID,0,
2010-03-09, 01:43:04,VALID,1005.76,VALID,0,VALID,95.4831,VALID,0.100563,VALID,23.1957,VALID,33,VALID,0,
2010-03-09, 01:44:04,VALID,1005.76,VALID,0,VALID,95.4831,VALID,0.100563,VALID,23.1957,VALID,33,VALID,0,
2010-03-09, 01:45:04,VALID,1005.74,VALID,0,VALID,95.4754,VALID,0,VALID,23.1957,VALID,33,VALID,0,
2010-03-09, 01:46:04,VALID,1005.75,VALID,0,VALID,95.4831,VALID,0,VALID,23.217,VALID,33,VALID,0,
2010-03-09, 01:47:04,VALID,1005.75,VALID,0,VALID,95.4907,VALID,0,VALID,23.217,VALID,33,VALID,0,
2010-03-09, 01:48:04,VALID,1005.73,VALID,0,VALID,95.4831,VALID,0,VALID,23.2364,VALID,33,VALID,0,
2010-03-09, 01:49:04,VALID,1005.69,VALID,0,VALID,95.4907,VALID,0,VALID,23.2382,VALID,33,VALID,0,
2010-03-09, 01:50:04,VALID,1005.69,VALID,0,VALID,95.4983,VALID,0,VALID,23.2152,VALID,33,VALID,0,
2010-03-09, 01:51:04,VALID,1005.69,VALID,0,VALID,95.4754,VALID,0,VALID,23.217,VALID,33,VALID,0,
2010-03-09, 01:52:04,VALID,1005.66,VALID,0,VALID,95.4831,VALID,0,VALID,23.217,VALID,33,VALID,0,
2010-03-09, 01:53:04,VALID,1005.66,VALID,0,VALID,95.506,VALID,0,VALID,23.217,VALID,33,VALID,0,
2010-03-09, 01:54:04,VALID,1005.65,VALID,0,VALID,95.4831,VALID,0,VALID,23.217,VALID,32,VALID,0,
2010-03-09, 01:55:04,VALID,1005.63,VALID,0,VALID,95.506,VALID,0,VALID,23.2364,VALID,32,VALID,0,
2010-03-09, 01:56:04,VALID,1005.65,VALID,0,VALID,95.4678,VALID,0,VALID,23.2754,VALID,32,VALID,0,
2010-03-09, 01:57:04,VALID,1005.63,VALID,0,VALID,95.4831,VALID,0,VALID,23.2754,VALID,32,VALID,0,
2010-03-09, 01:58:04,VALID,1005.63,VALID,0,VALID,95.4907,VALID,0,VALID,23.2559,VALID,32,VALID,0,
2010-03-09, 01:59:04,VALID,1005.7,VALID,0,VALID,95.4678,VALID,0,VALID,23.2736,VALID,32,VALID,0,
2010-03-09, 02:00:04,VALID,1005.68,VALID,0,VALID,95.4983,VALID,0.100563,VALID,23.332,VALID,32,VALID,0,
2010-03-09, 02:01:04,VALID,1005.69,VALID,0,VALID,95.5136,VALID,0,VALID,23.2736,VALID,32,VALID,0,
2010-03-09, 02:02:04,VALID,1005.69,VALID,0,VALID,95.5136,VALID,0,VALID,23.1957,VALID,32,VALID,0,
2010-03-09, 02:03:04,VALID,1005.65,VALID,0,VALID,95.5288,VALID,0,VALID,23.194,VALID,30,VALID,0.513672,
2010-03-09, 02:04:04,VALID,1005.66,VALID,0,VALID,95.5212,VALID,0,VALID,23.1957,VALID,30,VALID,0.401172,
2010-03-09, 02:05:04,VALID,1005.65,VALID,0,VALID,95.5288,VALID,0.100563,VALID,23.178,VALID,30,VALID,0.258984,
2010-03-09, 02:06:04,VALID,1005.62,VALID,0,VALID,95.5212,VALID,0,VALID,23.1162,VALID,30,VALID,0.212891,
2010-03-09, 02:07:04,VALID,1005.61,VALID,0,VALID,95.5288,VALID,0,VALID,23.1179,VALID,30,VALID,0,
2010-03-09, 02:08:04,VALID,1005.59,VALID,0,VALID,95.5365,VALID,0,VALID,23.1002,VALID,30,VALID,0,
2010-03-09, 02:09:04,VALID,1005.6,VALID,0,VALID,95.5365,VALID,0,VALID,23.0984,VALID,30,VALID,0,
2010-03-09, 02:10:04,VALID,1005.58,VALID,0,VALID,95.4983,VALID,0.100563,VALID,23.0984,VALID,30,VALID,0.215234,
2010-03-09, 02:11:04,VALID,1005.58,VALID,0,VALID,95.506,VALID,0,VALID,23.1197,VALID,30,VALID,0.115625,
2010-03-09, 02:12:04,VALID,1005.54,VALID,0,VALID,95.5212,VALID,0,VALID,23.1586,VALID,30,VALID,0,
2010-03-09, 02:13:04,VALID,1005.53,VALID,0,VALID,95.5212,VALID,0,VALID,23.1374,VALID,30,VALID,0,
2010-03-09, 02:14:04,VALID,1005.5,VALID,0,VALID,95.506,VALID,0,VALID,23.1763,VALID,30,VALID,0,
2010-03-09, 02:15:04,VALID,1005.48,VALID,0,VALID,95.5441,VALID,0.100563,VALID,23.1568,VALID,30,VALID,0,
2010-03-09, 02:16:04,VALID,1005.5,VALID,0,VALID,95.4983,VALID,0,VALID,23.1568,VALID,30,VALID,0,
2010-03-09, 02:17:04,VALID,1005.48,VALID,0,VALID,95.5288,VALID,0,VALID,23.1374,VALID,30,VALID,0,
2010-03-09, 02:18:04,VALID,1005.48,VALID,0,VALID,95.5365,VALID,0,VALID,23.1179,VALID,30,VALID,0.388672,
2010-03-09, 02:19:04,VALID,1005.48,VALID,0,VALID,95.5441,VALID,0,VALID,23.0984,VALID,30,VALID,0.483594,
2010-03-09, 02:20:04,VALID,1005.51,VALID,0,VALID,95.5212,VALID,0,VALID,23.1179,VALID,30,VALID,0.205078,
2010-03-09, 02:21:04,VALID,1005.51,VALID,0,VALID,95.5136,VALID,0,VALID,23.1179,VALID,30,VALID,0,
2010-03-09, 02:22:04,VALID,1005.51,VALID,0,VALID,95.5288,VALID,0,VALID,23.1374,VALID,30,VALID,0,
2010-03-09, 02:23:04,VALID,1005.5,VALID,0,VALID,95.5288,VALID,0,VALID,23.1179,VALID,30,VALID,0,
2010-03-09, 02:24:04,VALID,1005.5,VALID,0,VALID,95.5594,VALID,0,VALID,23.1179,VALID,30,VALID,0,
2010-03-09, 02:25:04,VALID,1005.49,VALID,0,VALID,95.5288,VALID,0,VALID,23.1179,VALID,30,VALID,0,
2010-03-09, 02:26:04,VALID,1005.5,VALID,0,VALID,95.5517,VALID,0,VALID,23.0984,VALID,29,VALID,0,
2010-03-09, 02:27:04,VALID,1005.5,VALID,0,VALID,95.5288,VALID,0.100563,VALID,23.1374,VALID,25,VALID,0,
2010-03-09, 02:28:04,VALID,1005.51,VALID,0,VALID,95.5365,VALID,0,VALID,23.1975,VALID,25,VALID,0,
2010-03-09, 02:29:04,VALID,1005.5,VALID,0,VALID,95.5594,VALID,0,VALID,23.1763,VALID,25,VALID,0,
2010-03-09, 02:30:04,VALID,1005.53,VALID,0,VALID,95.5517,VALID,0,VALID,23.1586,VALID,25,VALID,0,
2010-03-09, 02:31:04,VALID,1005.53,VALID,0,VALID,95.5594,VALID,0,VALID,23.1179,VALID,25,VALID,0,
2010-03-09, 02:32:04,VALID,1005.5,VALID,0,VALID,95.5594,VALID,0,VALID,23.1374,VALID,25,VALID,0,
2010-03-09, 02:33:04,VALID,1005.52,VALID,0,VALID,95.5899,VALID,0.100563,VALID,23.0984,VALID,25,VALID,0,
2010-03-09, 02:34:04,VALID,1005.51,VALID,0,VALID,95.5746,VALID,0,VALID,23.0967,VALID,25,VALID,0,
2010-03-09, 02:35:04,VALID,1005.52,VALID,0,VALID,95.5822,VALID,0,VALID,23.1179,VALID,25,VALID,0,
2010-03-09, 02:36:04,VALID,1005.52,VALID,0,VALID,95.567,VALID,0.100563,VALID,23.1179,VALID,25,VALID,0,
2010-03-09, 02:37:04,VALID,1005.51,VALID,0,VALID,95.5975,VALID,0,VALID,23.1179,VALID,25,VALID,0,
2010-03-09, 02:38:04,VALID,1005.53,VALID,0,VALID,95.5899,VALID,0.100563,VALID,23.1586,VALID,25,VALID,0,
2010-03-09, 02:39:04,VALID,1005.52,VALID,0,VALID,95.567,VALID,0,VALID,23.1763,VALID,25,VALID,0,
2010-03-09, 02:40:04,VALID,1005.54,VALID,0,VALID,95.5746,VALID,0,VALID,23.2364,VALID,25,VALID,0,
2010-03-09, 02:41:04,VALID,1005.53,VALID,0,VALID,95.5822,VALID,0,VALID,23.1957,VALID,25,VALID,0,
2010-03-09, 02:42:04,VALID,1005.5,VALID,0,VALID,95.6051,VALID,0,VALID,23.1763,VALID,25,VALID,0,
2010-03-09, 02:43:04,VALID,1005.49,VALID,0,VALID,95.5899,VALID,0,VALID,23.178,VALID,25,VALID,0,
2010-03-09, 02:44:04,VALID,1005.48,VALID,0,VALID,95.5975,VALID,0,VALID,23.1391,VALID,25,VALID,0,
2010-03-09, 02:45:04,VALID,1005.45,VALID,0,VALID,95.6051,VALID,0,VALID,23.1391,VALID,25,VALID,0,
2010-03-09, 02:46:04,VALID,1005.42,VALID,0,VALID,95.5975,VALID,0,VALID,23.1568,VALID,25,VALID,0,
2010-03-09, 02:47:04,VALID,1005.43,VALID,0,VALID,95.5975,VALID,0.100563,VALID,23.1957,VALID,25,VALID,0,
2010-03-09, 02:48:04,VALID,1005.42,VALID,0,VALID,95.5975,VALID,0.100563,VALID,23.1957,VALID,25,VALID,0,
2010-03-09, 02:49:04,VALID,1005.4,VALID,0,VALID,95.6051,VALID,0,VALID,23.1975,VALID,25,VALID,0,
2010-03-09, 02:50:04,VALID,1005.39,VALID,0,VALID,95.6356,VALID,0,VALID,23.178,VALID,25,VALID,0,
2010-03-09, 02:51:04,VALID,1005.41,VALID,0,VALID,95.6509,VALID,0.100563,VALID,23.0984,VALID,25,VALID,0,
2010-03-09, 02:52:04,VALID,1005.39,VALID,0,VALID,95.6356,VALID,0.100563,VALID,23.0967,VALID,25,VALID,0,
2010-03-09, 02:53:04,VALID,1005.39,VALID,0,VALID,95.628,VALID,0.100563,VALID,23.1179,VALID,25,VALID,0,
2010-03-09, 02:54:04,VALID,1005.4,VALID,0,VALID,95.6356,VALID,0,VALID,23.1568,VALID,25,VALID,0,
2010-03-09, 02:55:04,VALID,1005.37,VALID,0,VALID,95.6204,VALID,0,VALID,23.1763,VALID,25,VALID,0,
2010-03-09, 02:56:04,VALID,1005.35,VALID,0,VALID,95.6051,VALID,0.100563,VALID,23.2152,VALID,25,VALID,0,
2010-03-09, 02:57:04,VALID,1005.33,VALID,0,VALID,95.628,VALID,0,VALID,23.2347,VALID,25,VALID,0,
2010-03-09, 02:58:04,VALID,1005.35,VALID,0,VALID,95.6204,VALID,0,VALID,23.2347,VALID,25,VALID,0,
2010-03-09, 02:59:04,VALID,1005.34,VALID,0,VALID,95.6433,VALID,0,VALID,23.1763,VALID,25,VALID,0,
2010-03-09, 03:00:04,VALID,1005.33,VALID,0,VALID,95.6662,VALID,0,VALID,23.1586,VALID,25,VALID,0,
2010-03-09, 03:01:04,VALID,1005.3,VALID,0,VALID,95.6128,VALID,0,VALID,23.1957,VALID,25,VALID,0,
2010-03-09, 03:02:04,VALID,1005.32,VALID,0,VALID,95.628,VALID,0,VALID,23.217,VALID,25,VALID,0,
2010-03-09, 03:03:04,VALID,1005.3,VALID,0,VALID,95.6433,VALID,0,VALID,23.217,VALID,25,VALID,0,
2010-03-09, 03:04:04,VALID,1005.28,VALID,0,VALID,95.6662,VALID,0,VALID,23.1975,VALID,25,VALID,0,
2010-03-09, 03:05:04,VALID,1005.27,VALID,0,VALID,95.6509,VALID,0,VALID,23.178,VALID,25,VALID,0,
2010-03-09, 03:06:04,VALID,1005.25,VALID,0,VALID,95.6585,VALID,0,VALID,23.1179,VALID,25,VALID,0,
2010-03-09, 03:07:04,VALID,1005.21,VALID,0,VALID,95.6814,VALID,0,VALID,23.0595,VALID,25,VALID,0,
2010-03-09, 03:08:04,VALID,1005.23,VALID,0,VALID,95.7043,VALID,0,VALID,23.0418,VALID,25,VALID,0,
2010-03-09, 03:09:04,VALID,1005.23,VALID,0,VALID,95.6967,VALID,0,VALID,23.0012,VALID,25,VALID,0,
2010-03-09, 03:10:04,VALID,1005.22,VALID,0,VALID,95.689,VALID,0,VALID,23.0224,VALID,25,VALID,0,
2010-03-09, 03:11:04,VALID,1005.24,VALID,0,VALID,95.6662,VALID,0,VALID,23.0613,VALID,25,VALID,0,
2010-03-09, 03:12:04,VALID,1005.25,VALID,0,VALID,95.6585,VALID,0,VALID,23.1197,VALID,25,VALID,0,
2010-03-09, 03:13:04,VALID,1005.24,VALID,0,VALID,95.6356,VALID,0,VALID,23.178,VALID,25,VALID,0,
2010-03-09, 03:14:04,VALID,1005.25,VALID,0,VALID,95.6356,VALID,0,VALID,23.1957,VALID,25,VALID,0,
2010-03-09, 03:15:04,VALID,1005.24,VALID,0,VALID,95.6509,VALID,0,VALID,23.1957,VALID,25,VALID,0,
2010-03-09, 03:16:04,VALID,1005.26,VALID,0,VALID,95.6967,VALID,0,VALID,23.1586,VALID,25,VALID,0,
2010-03-09, 03:17:04,VALID,1005.28,VALID,0,VALID,95.6814,VALID,0,VALID,23.1197,VALID,25,VALID,0,
2010-03-09, 03:18:04,VALID,1005.31,VALID,0,VALID,95.6967,VALID,0,VALID,23.0984,VALID,25,VALID,0,
2010-03-09, 03:19:04,VALID,1005.28,VALID,0,VALID,95.7043,VALID,0,VALID,23.1197,VALID,25,VALID,0,
2010-03-09, 03:20:04,VALID,1005.32,VALID,0,VALID,95.6814,VALID,0,VALID,23.1002,VALID,25,VALID,0,
2010-03-09, 03:21:04,VALID,1005.34,VALID,0,VALID,95.6967,VALID,0,VALID,23.1002,VALID,25,VALID,0,
2010-03-09, 03:22:04,VALID,1005.34,VALID,0,VALID,95.7119,VALID,0,VALID,23.0807,VALID,25,VALID,0,
2010-03-09, 03:23:04,VALID,1005.34,VALID,0,VALID,95.7501,VALID,0,VALID,23.0224,VALID,25,VALID,0,
2010-03-09, 03:24:04,VALID,1005.34,VALID,0,VALID,95.7348,VALID,0,VALID,23.0224,VALID,25,VALID,0,
2010-03-09, 03:25:04,VALID,1005.33,VALID,0,VALID,95.7577,VALID,0,VALID,22.9428,VALID,25,VALID,0,
2010-03-09, 03:26:04,VALID,1005.31,VALID,0,VALID,95.7577,VALID,0,VALID,22.9251,VALID,25,VALID,0,
2010-03-09, 03:27:04,VALID,1005.33,VALID,0,VALID,95.7424,VALID,0,VALID,22.9039,VALID,25,VALID,0,
2010-03-09, 03:28:04,VALID,1005.34,VALID,0,VALID,95.7348,VALID,0,VALID,22.9445,VALID,25,VALID,0,
2010-03-09, 03:29:04,VALID,1005.32,VALID,0,VALID,95.7424,VALID,0,VALID,22.9657,VALID,25,VALID,0,
2010-03-09, 03:30:04,VALID,1005.32,VALID,0,VALID,95.7272,VALID,0,VALID,22.9852,VALID,25,VALID,0,
2010-03-09, 03:31:04,VALID,1005.32,VALID,0,VALID,95.7424,VALID,0,VALID,22.964,VALID,25,VALID,0,
2010-03-09, 03:32:04,VALID,1005.31,VALID,0,VALID,95.7272,VALID,0,VALID,22.9657,VALID,25,VALID,0,
2010-03-09, 03:33:04,VALID,1005.32,VALID,0,VALID,95.7272,VALID,0,VALID,22.9834,VALID,25,VALID,0,
2010-03-09, 03:34:04,VALID,1005.33,VALID,0,VALID,95.7119,VALID,0,VALID,23.063,VALID,25,VALID,0,
2010-03-09, 03:35:04,VALID,1005.31,VALID,0,VALID,95.7348,VALID,0,VALID,23.0241,VALID,25,VALID,0,
2010-03-09, 03:36:04,VALID,1005.33,VALID,0,VALID,95.7424,VALID,0,VALID,23.0418,VALID,25,VALID,0,
2010-03-09, 03:37:04,VALID,1005.32,VALID,0,VALID,95.7272,VALID,0,VALID,23.0807,VALID,25,VALID,0,
2010-03-09, 03:38:04,VALID,1005.32,VALID,0,VALID,95.7348,VALID,0,VALID,23.0224,VALID,16,VALID,0.0835937,
2010-03-09, 03:39:04,VALID,1005.31,VALID,0,VALID,95.7577,VALID,0,VALID,22.9834,VALID,10,VALID,0.543359,
2010-03-09, 03:40:04,VALID,1005.31,VALID,0,VALID,95.7882,VALID,0,VALID,22.9039,VALID,10,VALID,0.639063,
2010-03-09, 03:41:04,VALID,1005.32,VALID,0,VALID,95.7882,VALID,0,VALID,22.8861,VALID,10,VALID,0.566016,
2010-03-09, 03:42:04,VALID,1005.33,VALID,0,VALID,95.7806,VALID,0,VALID,22.8472,VALID,10,VALID,0.584766,
2010-03-09, 03:43:04,VALID,1005.31,VALID,0,VALID,95.7882,VALID,0,VALID,22.8472,VALID,10,VALID,0.600781,
2010-03-09, 03:44:04,VALID,1005.35,VALID,0,VALID,95.7577,VALID,0,VALID,22.8472,VALID,10,VALID,0.620313,
2010-03-09, 03:45:04,VALID,1005.38,VALID,0,VALID,95.7806,VALID,0,VALID,22.8472,VALID,10,VALID,0.495313,
2010-03-09, 03:46:04,VALID,1005.4,VALID,0,VALID,95.773,VALID,0,VALID,22.8472,VALID,10,VALID,0.423828,
2010-03-09, 03:47:04,VALID,1005.42,VALID,0,VALID,95.773,VALID,0,VALID,22.8667,VALID,10,VALID,0.438281,
2010-03-09, 03:48:04,VALID,1005.43,VALID,0,VALID,95.7882,VALID,0,VALID,22.8667,VALID,10,VALID,0.390234,
2010-03-09, 03:49:04,VALID,1005.44,VALID,0,VALID,95.773,VALID,0,VALID,22.8861,VALID,10,VALID,0.135937,
2010-03-09, 03:50:04,VALID,1005.41,VALID,0,VALID,95.7882,VALID,0,VALID,22.8879,VALID,10,VALID,0,
2010-03-09, 03:51:04,VALID,1005.44,VALID,0,VALID,95.7653,VALID,0,VALID,22.8472,VALID,10,VALID,0,
2010-03-09, 03:52:04,VALID,1005.43,VALID,0,VALID,95.7959,VALID,0,VALID,22.8684,VALID,10,VALID,0,
2010-03-09, 03:53:04,VALID,1005.44,VALID,0,VALID,95.7959,VALID,0,VALID,22.8879,VALID,10,VALID,0,
2010-03-09, 03:54:04,VALID,1005.45,VALID,0,VALID,95.773,VALID,0,VALID,22.9268,VALID,10,VALID,0,
2010-03-09, 03:55:04,VALID,1005.42,VALID,0,VALID,95.773,VALID,0,VALID,22.9251,VALID,10,VALID,0,
2010-03-09, 03:56:04,VALID,1005.41,VALID,0,VALID,95.773,VALID,0,VALID,22.9056,VALID,10,VALID,0,
2010-03-09, 03:57:04,VALID,1005.44,VALID,0,VALID,95.7959,VALID,0,VALID,22.8844,VALID,10,VALID,0,